Location: Windsor
(43.2292°N, 89.3015°W)
Time: 22:40:50
(UTC+00:00)

MOZHAYETS 4 - Pass Details

Date: 06 July 2022
Orbit: 660 x 678 km, 98.2° (Epoch: 16 August)

Event Time Altitude Azimuth Distance (km) Brightness Sun altitude
Exits shadow 08:39:14 20° 187° (S) 1,551 9.1 -14.8°
Maximum altitude 08:42:18 55° 259° (W) 812 7.9 -14.5°
Drops below altitude 10° 08:46:50 10° 338° (NNW) 2,108 10.7 -14.0°
Sets 08:49:06 0° 343° (NNW) 3,023 11.6 -13.7°
